Regional & State Weather Roundups


328 
ASUS42 KCHS 110911
RWRCHS
REGIONAL WEATHER ROUNDUP
NATIONAL WEATHER SERVICE CHARLESTON SC
400 AM EST MON DEC 11 2017
NOTE: "FAIR" INDICATES FEW OR NO CLOUDS BELOW 12,000 FEET WITH NO
SIGNIFICANT WEATHER AND/OR OBSTRUCTIONS TO VISIBILITY.
NOT ALL STATIONS ARE QUALITY CONTROLLED. USE DATA WITH CAUTION...
ESPECIALLY DEWPOINT OBSERVATIONS.
SCZ027-030-031-034>040-042>050-111000-
...SOUTHEAST SOUTH CAROLINA...
  
CITY           SKY/WX    TMP DP  RH WIND       PRES   REMARKS
N CHARLESTON   CLEAR     33  27  78 SW5       30.22F WCI  29          
WATERFRONT PRK   N/A     40  32  73 VRB3      30.08F                  
JOHNS ISLAND   FAIR      37  30  75 CALM      30.23F                  
PINOPOLIS        N/A     36  30  80 SW7       30.13F WCI  30          
MONCKS CORNER  FAIR      28  27  93 CALM      30.21S                  
SUMMERVILLE    FAIR      32  28  86 CALM      30.22S                  
BEAUFORT MCAS  CLEAR     33  29  85 SW8       30.24F WCI  26          
BEAUFORT ARPT  FAIR      39  30  70 W9        30.24F WCI  33          
HILTON HEAD IS CLEAR     39  28  65 SW6       30.26F WCI  35          
WALTERBORO     SUNNY     32  28  86 SW6       30.22F WCI  26          
ALLENDALE      FAIR      34  27  75 CALM      30.21F                  
...SOUTHERN MIDLANDS AND PEE DEE...
  
CITY           SKY/WX    TMP DP  RH WIND       PRES   REMARKS
GEORGETOWN     FAIR      32  30  93 SW7       30.21F WCI  26          
KINGSTREE      FAIR      30  28  93 CALM      30.18F                  
ORANGEBURG     CLEAR     32  26  78 SW8       30.18F WCI  25          
BARNWELL         N/A     37  28  70 SW6       30.19F WCI  33          
AIKEN          FAIR      30  27  86 W7        30.20S WCI  23          
MANNING        FAIR      32  30  93 MISG      30.18F                  
COLUMBIA       CLEAR     30  27  88 CALM      30.16S                  
SUMTER         CLEAR     33  25  71 SW6       30.13F WCI  28          
FLORENCE       CLEAR     29  27  92 CALM      30.15F                  
MYRTLE BEACH   CLEAR     36  30  79 SW6       30.20F WCI  31          
N MYRTLE BEACH CLEAR     36  29  75 SW6       30.18F WCI  31          
$$
 
GAZ063-065-086>088-099>101-113>116-118-119-134>141-150-111000-
...SOUTHEAST GEORGIA...
  
CITY           SKY/WX    TMP DP  RH WIND       PRES   REMARKS
SAVANNAH ARPT  CLEAR     34  28  79 SW5       30.26F WCI  30          
HUNTER AAF     CLEAR     31  27  84 SW3       30.23F                  
FORT STEWART   CLEAR     30  27  88 CALM      30.24F                  
STATESBORO     CLEAR     36  26  69 W3        30.23F                  
SYLVANIA       SUNNY     33  31  93 CALM      30.24F                  
CLAXTON        FAIR      30  29  97 CALM      30.26F                  
...CSRA...CENTRAL AND FAR SOUTHEAST GEORGIA...
  
CITY           SKY/WX    TMP DP  RH WIND       PRES   REMARKS
THOMSON        CLEAR     35  26  71 NW7       30.24F WCI  29          
AUGUSTA-BUSH   CLEAR     35  27  72 CALM      30.19F                  
AUGUSTA-DANIEL CLEAR     39  26  59 VRB5      30.18F WCI  36          
SWAINSBORO     FAIR      32  32 100 CALM      30.24F                  
VIDALIA        CLEAR     32  32 100 W3        30.25F                  
EASTMAN        FAIR      30  25  80 CALM      30.29F                  
HAZLEHURST     FAIR      34  26  71 CALM      30.25F                  
ALMA           CLEAR     29  26  89 CALM      30.27F                  
WAYCROSS       CLEAR     29  27  91 CALM      30.28F                  
JESUP          NOT AVBL                                               
BAXLEY         FAIR      28  28 100 CALM      30.27S                  
BRUNSWICK      CLEAR     34  30  86 W5        30.29S WCI  30          
SAINT SIMONS   CLEAR     39  31  72 W5        30.28S WCI  36          
$$
SCZ027-028-034-036>038-045-046-048>050-GAZ119-141-111000-
...LAKE AND SUPPLEMENTAL COASTAL OBSERVATIONS...
  
STATION/POSITION TIME  TEMP    WIND        PRES    WAVE   SWELL
                       AIR SEA DIR/SP/G            HT/PER HT/PER/DIR
                 (UTC) (F)     (DEG/KT/KT) (MB)    (FT/S) (FT/S/D)
WINYAH BAY       0745   38     250/  4     1023.0
LAKE MURRAY      0820   40     270/ 10/ 15 1020.3
ACE BASIN NERRS  NOT AVBL
FORT PULASKI     0848   41 55  270/  9/ 12 1025.0F
SAPELO ISLAND    NOT AVBL
$$
ANZ835-935-AMZ111-154-330-350-352-354-370-450-454-472-111000-
...C-MAN AND BUOY OBSERVATIONS...
  
STATION/POSITION TIME  TEMP    WIND        PRES    WAVE   SWELL
                       AIR SEA DIR/SP/G            HT/PER HT/PER/DIR
                 (UTC) (F)     (DEG/KT/KT) (MB)    (FT/S) (FT/S/D)
BUOY 41004       0850      74  270/ 17/ 23 1022.7F   4/ 5   2/ 90/ 8
BUOY 41008       0850   50 61  290/ 19/ 21 1024.3F   2/ 3
FOLLY BEACH CMAN 0800   41     260/  6/  9 1024.2R
CAPERS NEARSHORE 0808   42     280/ 16/ 19 1023.2R
FRIPP NEARSHORE  0808   44 56  270/ 19/ 27 1023.5R
  
STATION/POSITION TIME  TEMP    WIND        PRES    WAVE   SWELL
                       AIR SEA DIR/SP/G            HT/PER HT/PER/DIR
                 (UTC) (F)     (DEG/KT/KT) (MB)    (FT/S) (FT/S/D)
5E ST. MARYS GA  0830      60                N/A     2/11
FRYING PAN BUOY  0850   53 63  260/ 17/ 23 1021.7F   4/ 4   2/ 80/ 9
BUOY 41025       0850   51 72  260/ 17/ 25 1020.5F   4/ 4   2/200/ 7
CAPE LOOKOUT NC  0800          270/ 12/ 15 1021.6F
BUOY 41002       0750   60 76  300/ 12/ 16 1021.6    6/ 8   5/300/ 8
BUOY 41010       NOT AVBL
ST AUGUSTINE FL  0900   44 61  320/  9/ 10 1025.8R
$$